TimeMST,TemperatureF,Dew PointF,Humidity,Sea Level PressureIn,VisibilityMPH,Wind Direction,Wind SpeedMPH,Gust SpeedMPH,PrecipitationIn,Events,Conditions,WindDirDegrees,DateUTC
12:53 AM,18.0,8.1,65,30.30,10.0,West,8.1,-,N/A,,Clear,270,2012-12-21 07:53:00
1:53 AM,18.0,8.1,65,30.31,10.0,West,9.2,-,N/A,,Clear,280,2012-12-21 08:53:00
2:53 AM,15.1,7.0,70,30.32,10.0,WNW,4.6,-,N/A,,Clear,300,2012-12-21 09:53:00
3:53 AM,15.1,7.0,70,30.32,10.0,WNW,4.6,-,N/A,,Clear,290,2012-12-21 10:53:00
4:53 AM,12.9,6.1,74,30.33,10.0,WNW,4.6,-,N/A,,Clear,290,2012-12-21 11:53:00
5:53 AM,12.9,5.0,71,30.34,10.0,West,6.9,-,N/A,,Clear,270,2012-12-21 12:53:00
6:53 AM,9.0,3.9,80,30.36,10.0,Calm,Calm,-,N/A,,Clear,0,2012-12-21 13:53:00
7:53 AM,12.9,5.0,71,30.34,10.0,Calm,Calm,-,N/A,,Clear,0,2012-12-21 14:53:00
8:53 AM,19.0,8.1,62,30.33,10.0,WSW,3.5,-,N/A,,Clear,250,2012-12-21 15:53:00
9:53 AM,24.1,12.0,60,30.32,10.0,WSW,3.5,-,N/A,,Clear,240,2012-12-21 16:53:00
10:53 AM,30.9,17.1,57,30.29,10.0,SW,5.8,-,N/A,,Clear,230,2012-12-21 17:53:00
11:53 AM,34.0,18.0,52,30.25,10.0,Calm,Calm,-,N/A,,Clear,0,2012-12-21 18:53:00
12:53 PM,37.9,21.0,51,30.22,10.0,Calm,Calm,-,N/A,,Clear,0,2012-12-21 19:53:00
1:53 PM,37.9,21.0,51,30.19,10.0,Calm,Calm,-,N/A,,Clear,0,2012-12-21 20:53:00
2:53 PM,37.9,21.0,51,30.19,10.0,Calm,Calm,-,N/A,,Clear,0,2012-12-21 21:53:00
3:53 PM,32.0,21.9,66,30.19,10.0,Calm,Calm,-,N/A,,Clear,0,2012-12-21 22:53:00
4:53 PM,27.0,19.9,75,30.20,10.0,South,3.5,-,N/A,,Clear,190,2012-12-21 23:53:00
5:53 PM,25.0,18.0,75,30.21,10.0,Calm,Calm,-,N/A,,Clear,0,2012-12-22 00:53:00
6:53 PM,16.0,12.0,84,30.24,10.0,Calm,Calm,-,N/A,,Clear,0,2012-12-22 01:53:00
7:53 PM,17.1,15.1,92,30.22,10.0,WSW,4.6,-,N/A,,Clear,240,2012-12-22 02:53:00
8:53 PM,15.1,12.0,88,30.20,10.0,West,3.5,-,N/A,,Clear,280,2012-12-22 03:53:00
9:53 PM,17.1,12.9,84,30.17,10.0,Calm,Calm,-,N/A,,Clear,0,2012-12-22 04:53:00
10:53 PM,12.0,10.0,92,30.15,10.0,Calm,Calm,-,N/A,,Clear,0,2012-12-22 05:53:00
11:53 PM,9.0,5.0,84,30.14,10.0,Calm,Calm,-,N/A,,Clear,0,2012-12-22 06:53:00